Tracking 17150 objects as of 4-August-2015
HD Live streaming from Space Station

EUTE 7A (EUTE W3A)

Track EUTE 7A (EUTE W3A) now!
EUTE 7A (EUTE W3A) is classified as:


NORAD ID: 28187
Int'l Code: 2004-008A
Perigee: 35,774.2 km
Apogee: 35,812.4 km
Inclination: 0.1 °
Period: 1,436.1 minutes
Semi major axis: 42164 km
RCS: 29.9526 m2 (large)
Launch date: March 15, 2004
Source: European Telecommunications Satellite Organization (EUTE)

58 Ku-band transponders; covers whole of sub-Saharan Africa and provides connectivity to Europe and Middle East.
Your satellite tracking list
Your tracking list is empty





NASA's NSSDC Master Catalog

Two Line Element Set (TLE):
1 28187U 04008A   15215.09668385  .00000029  00000-0  00000+0 0  9997
2 28187 000.0665 343.8893 0004524 162.7092 206.5564 01.00273401 41758

Source of the keplerian elements: AFSPC

N2YO: 343